Temp
16 16 16 16 17 17 17 17 17 17 17 18 17 17 17 17 17 17 17 17 16 16 17 17 17 17 17 17 16 16 14 13 14 13 13 14 13 13 12 12 12 13 13
16 16 16 16 16 17 17 17 17 17 17 18 18 17 17 16 15 16 16 15 16 16 17 17 17 17 17 16 16 15 13 13 14 13 14 13 13 13 13 13 12 13 13
16 16 16 16 16 16 17 17 17 17 16 17 18 17 16 16 15 15 15 16 16 16 17 17 17 16 16 15 15 15 14 13 13 13 13 13 13 13 13 11 11 11 12
16 16 16 16 16 16 16 16 16 15 16 17 17 17 16 16 16 16 16 15 16 16 16 16 16 16 15 15 14 13 13 13 13 13 13 13 12 13 12 12 11 12 12
16 16 16 16 16 16 16 16 15 15 15 16 17 17 16 16 16 16 15 15 16 16 16 16 16 16 15 15 14 13 13 13 13 14 13 13 12 13 12 12 12 11 12
16 16 16 16 16 16 16 16 15 15 15 16 16 17 17 16 16 16 15 15 16 16 16 16 16 16 15 15 14 13 13 13 14 13 13 13 13 13 13 12 12 11 12
16 17 16 16 16 16 16 16 16 15 16 15 16 16 17 16 16 16 16 16 16 16 16 15 16 15 15 15 15 14 13 13 13 13 13 13 13 13 13 13 14 12 12
16 16 16 15 15 15 16 16 16 16 15 15 16 16 16 16 15 15 15 15 15 15 15 15 15 15 15 15 14 14 13 13 13 14 14 13 13 13 13 14 14 14 14
16 16 16 16 15 15 15 15 15 15 15 15 15 16 16 16 16 15 15 15 15 15 15 16 16 15 15 14 14 14 14 13 13 14 14 14 14 14 13 14 14 14 13
15 16 15 16 16 16 16 15 15 15 15 15 15 15 15 15 15 15 15 15 15 15 15 15 16 15 15 14 14 14 14 14 14 14 14 14 14 14 14 14 14 14 13
15 15 15 15 15 15 15 15 15 15 15 15 15 15 15 15 15 15 15 15 15 15 15 15 15 16 15 15 14 14 14 14 14 14 14 14 14 14 14 14 14 14 13
15 15 15 15 15 15 15 15 15 15 15 15 15 15 15 15 15 15 15 15 15 15 14 14 15 15 15 15 15 14 14 14 14 14 14 14 14 14 14 14 14 14 13
15 15 15 15 15 15 15 15 14 15 15 15 15 15 14 14 14 15 15 15 14 15 15 14 15 15 15 15 15 15 14 14 14 14 14 14 14 14 14 14 14 14 14
14 14 15 15 15 15 15 15 14 15 15 15 15 15 14 14 14 14 14 14 14 14 15 15 15 14 15 15 15 15 15 14 14 14 14 14 14 14 14 14 14 14 14
14 14 14 14 14 15 15 16 15 15 15 15 15 15 15 15 14 14 14 14 14 14 14 15 14 14 14 15 15 15 15 15 14 14 14 14 14 14 14 14 14 14 14
13 13 13 13 13 13 14 14 15 15 15 15 15 15 15 15 15 15 14 14 14 14 14 14 14 14 14 14 14 15 15 15 15 14 14 14 14 14 14 13 13 14 14
13 13 13 13 13 13 13 13 13 13 13 14 14 14 14 14 14 14 14 14 14 14 14 14 14 14 14 14 14 14 15 14 14 14 14 14 14 13 13 13 13 13 13
12 12 12 12 12 12 12 12 12 12 13 13 13 14 14 14 13 13 13 13 14 14 14 14 14 14 14 14 14 14 14 15 14 14 14 14 14 14 13 13 13 13 13
11 11 12 12 12 12 12 11 12 11 11 12 12 13 13 13 13 13 13 13 13 13 14 14 14 14 14 14 15 15 14 14 14 14 14 14 14 14 14 14 13 13 13
10 10 10 10 11 11 11 11 11 11 11 11 11 12 12 12 12 13 13 13 13 12 13 13 14 14 13 13 14 14 15 14 14 14 14 14 14 14 14 14 14 13 13
10 10 10 10 10 10 10 10 10 10 10 11 11 12 12 12 12 12 13 13 13 12 12 13 14 13 13 13 13 13 14 14 14 14 14 14 14 14 13 13 14 14 14
10 10 10 10 10 10 10 10 10 10 10 10 11 11 12 12 11 11 11 12 12 13 12 12 12 14 13 13 13 13 12 13 14 15 15 15 15 14 14 14 13 13 14
8 8 8 8 8 9 9 9 9 9 10 10 11 11 11 11 10 10 10 10 11 11 12 12 12 12 13 12 13 12 12 12 13 14 15 15 15 15 15 15 14 14 14
8 7 7 6 6 6 6 6 6 6 6 8 9 10 10 9 9 9 9 9 10 10 11 12 12 12 12 12 12 12 12 12 13 13 14 14 14 14 15 14 14 14 14
7 7 6 5 5 5 4 4 3 3 3 5 6 7 7 7 7 7 7 8 8 9 9 10 11 12 12 11 11 12 12 12 11 12 11 12 13 14 14 14 14 14 14
7 6 6 6 5 3 3 3 2 3 4 5 6 7 7 6 6 6 6 7 7 8 8 9 9 10 11 11 11 11 11 11 11 12 11 11 12 12 12 12 13 13 13
Height
1545 1546 1547 1548 1549 1550 1552 1552 1552 1552 1551 1550 1550 1551 1551 1551 1551 1552 1552 1552 1553 1553 1553 1552 1552 1551 1551 1551 1551 1551 1552 1552 1553 1553 1552 1552 1551 1550 1550 1550 1550 1550 1550
1546 1547 1548 1549 1550 1551 1552 1552 1552 1553 1553 1552 1552 1552 1553 1553 1553 1553 1553 1554 1554 1554 1554 1554 1553 1553 1553 1553 1552 1552 1553 1553 1553 1554 1554 1553 1553 1552 1552 1551 1551 1552 1552
1547 1548 1548 1550 1550 1552 1552 1553 1553 1553 1554 1554 1554 1554 1555 1555 1555 1555 1555 1555 1555 1555 1556 1556 1555 1555 1554 1554 1554 1554 1554 1554 1554 1555 1555 1554 1554 1554 1554 1553 1553 1553 1553
1547 1548 1549 1550 1551 1552 1554 1553 1553 1554 1554 1555 1555 1556 1556 1556 1557 1557 1556 1556 1557 1557 1557 1557 1556 1556 1556 1556 1556 1555 1555 1555 1556 1556 1556 1556 1556 1556 1555 1555 1554 1554 1554
1547 1548 1549 1550 1552 1553 1554 1554 1555 1555 1555 1555 1556 1556 1557 1557 1557 1557 1556 1557 1558 1558 1558 1558 1557 1557 1557 1557 1557 1557 1556 1557 1557 1557 1558 1558 1558 1558 1557 1556 1556 1556 1556
1547 1547 1548 1551 1552 1553 1554 1555 1556 1556 1557 1556 1556 1557 1557 1558 1558 1558 1559 1559 1559 1559 1559 1558 1558 1558 1557 1558 1558 1558 1558 1558 1558 1559 1559 1559 1560 1560 1559 1559 1558 1558 1557
1548 1548 1549 1550 1551 1553 1554 1555 1556 1556 1557 1557 1557 1557 1558 1558 1558 1559 1560 1560 1560 1560 1560 1559 1559 1558 1558 1558 1559 1559 1559 1559 1559 1560 1560 1560 1560 1561 1560 1559 1559 1559 1559
1548 1549 1549 1550 1552 1553 1554 1554 1555 1556 1556 1556 1557 1557 1557 1558 1558 1559 1560 1560 1560 1560 1560 1560 1559 1559 1559 1559 1559 1559 1559 1559 1560 1560 1560 1560 1561 1562 1561 1560 1560 1560 1559
1549 1550 1550 1550 1550 1551 1553 1554 1555 1555 1555 1555 1555 1556 1557 1557 1558 1559 1559 1560 1561 1560 1560 1559 1559 1559 1559 1559 1559 1560 1560 1560 1560 1560 1560 1561 1561 1561 1561 1561 1561 1560 1560
1550 1550 1550 1551 1551 1551 1552 1552 1553 1554 1555 1554 1554 1555 1555 1556 1557 1558 1558 1559 1560 1560 1560 1559 1559 1559 1559 1559 1559 1559 1560 1560 1560 1560 1560 1560 1561 1561 1561 1561 1561 1561 1561
1550 1551 1550 1550 1550 1551 1551 1551 1552 1552 1552 1553 1553 1553 1554 1554 1555 1556 1557 1558 1559 1559 1559 1559 1559 1558 1558 1558 1558 1559 1559 1559 1559 1560 1560 1560 1560 1561 1561 1561 1561 1561 1561
1550 1551 1551 1551 1550 1550 1550 1549 1549 1550 1551 1551 1552 1552 1552 1553 1553 1554 1554 1555 1556 1557 1557 1558 1558 1557 1557 1557 1557 1558 1558 1558 1559 1559 1559 1559 1559 1560 1560 1560 1560 1560 1560
1548 1549 1549 1549 1548 1547 1547 1547 1547 1547 1548 1548 1549 1549 1549 1550 1551 1552 1552 1552 1553 1554 1554 1555 1556 1556 1556 1556 1556 1556 1557 1557 1557 1558 1558 1558 1558 1559 1559 1559 1559 1559 1559
1545 1545 1545 1544 1544 1544 1544 1544 1544 1544 1544 1545 1545 1546 1546 1547 1548 1549 1549 1550 1550 1551 1551 1552 1553 1554 1554 1554 1554 1554 1554 1555 1555 1556 1556 1556 1556 1557 1557 1557 1558 1558 1558
1542 1542 1541 1540 1540 1539 1539 1540 1540 1540 1540 1540 1541 1541 1542 1543 1544 1545 1545 1546 1547 1547 1548 1548 1549 1551 1551 1551 1552 1552 1552 1552 1553 1553 1554 1554 1554 1554 1555 1555 1556 1556 1556
1538 1537 1536 1536 1535 1534 1535 1534 1534 1534 1534 1534 1535 1536 1536 1538 1539 1540 1540 1541 1542 1543 1544 1545 1545 1547 1547 1548 1548 1549 1549 1549 1550 1550 1551 1551 1552 1552 1552 1553 1553 1553 1554
1535 1533 1533 1532 1531 1531 1530 1530 1529 1528 1528 1528 1529 1530 1531 1531 1532 1533 1534 1535 1536 1537 1539 1541 1541 1542 1543 1543 1543 1544 1545 1545 1546 1547 1547 1548 1549 1549 1550 1550 1550 1551 1551
1530 1530 1529 1528 1528 1527 1526 1525 1524 1524 1523 1523 1524 1524 1525 1526 1527 1527 1528 1529 1531 1532 1533 1534 1535 1537 1537 1538 1539 1540 1540 1541 1542 1542 1543 1544 1545 1545 1546 1546 1547 1547 1548
1526 1525 1524 1524 1523 1522 1521 1519 1518 1517 1517 1517 1518 1518 1519 1519 1520 1520 1521 1523 1525 1526 1526 1527 1528 1530 1531 1531 1532 1533 1535 1536 1536 1537 1538 1539 1539 1540 1541 1542 1543 1543 1544
1523 1522 1520 1519 1518 1516 1514 1513 1511 1510 1511 1511 1511 1511 1512 1512 1513 1513 1513 1515 1517 1518 1520 1521 1521 1522 1523 1524 1525 1526 1528 1529 1531 1531 1532 1533 1533 1535 1536 1537 1538 1538 1539
1520 1518 1516 1513 1513 1510 1507 1505 1503 1501 1501 1501 1503 1504 1504 1505 1505 1506 1506 1507 1509 1510 1513 1514 1515 1516 1517 1518 1518 1517 1520 1522 1523 1524 1525 1526 1528 1529 1530 1531 1532 1532 1534
1514 1511 1509 1506 1504 1502 1500 1498 1495 1492 1491 1491 1493 1495 1496 1496 1497 1497 1497 1499 1500 1502 1504 1507 1510 1509 1510 1512 1514 1515 1512 1512 1514 1516 1518 1519 1520 1522 1522 1524 1525 1527 1528
1508 1505 1501 1497 1494 1491 1490 1486 1484 1482 1480 1480 1483 1484 1486 1487 1487 1488 1489 1490 1491 1493 1494 1499 1502 1503 1501 1504 1507 1510 1510 1505 1509 1508 1510 1511 1513 1513 1515 1516 1517 1519 1521
1503 1499 1495 1491 1487 1484 1481 1477 1475 1472 1469 1471 1472 1474 1476 1477 1478 1479 1480 1481 1482 1483 1484 1488 1493 1496 1498 1499 1497 1500 1502 1503 1503 1502 1503 1504 1506 1507 1508 1509 1509 1511 1512
1499 1495 1490 1484 1480 1476 1473 1471 1468 1465 1464 1464 1465 1465 1467 1468 1469 1469 1471 1472 1473 1475 1476 1479 1482 1486 1489 1491 1493 1495 1493 1496 1497 1498 1497 1498 1501 1501 1503 1503 1504 1502 1503
1496 1492 1487 1481 1475 1471 1467 1464 1462 1459 1459 1459 1459 1459 1460 1459 1460 1461 1462 1463 1465 1466 1468 1470 1473 1476 1479 1482 1485 1487 1489 1490 1488 1492 1492 1491 1492 1494 1493 1495 1498 1497 1496
Wind_Speed
9 11 9 7 7 6 5 4 3 4 5 6 7 8 9 9 9 8 8 10 9 8 7 7 7 6 6 7 8 10 14 10 12 13 11 11 11 15 16 14 18 21 19
6 9 8 8 6 5 3 3 3 4 5 5 7 9 10 10 10 10 12 13 8 7 7 7 7 6 7 8 8 10 12 11 11 10 9 11 12 13 11 12 17 18 18
4 6 8 8 7 5 3 2 3 3 5 5 5 8 8 7 7 8 9 10 8 7 7 6 6 6 7 8 9 7 9 11 11 12 15 13 11 11 12 14 16 16 16
6 6 6 7 8 6 4 2 2 4 5 5 4 5 6 4 4 4 7 10 7 5 5 4 5 4 5 5 5 8 9 9 11 12 13 12 11 9 12 14 13 15 17
7 7 5 7 7 7 5 4 2 3 1 3 3 5 5 5 4 2 9 14 5 2 2 3 3 3 3 3 5 7 8 9 8 10 13 13 8 6 8 12 13 13 14
6 8 5 6 7 6 5 5 3 4 4 1 2 3 4 4 3 6 11 8 3 1 1 1 1 1 2 2 4 5 8 9 9 11 10 8 7 7 7 10 11 11 11
6 7 5 6 6 6 6 6 6 4 6 3 1 1 4 5 3 4 6 4 2 1 1 0 1 2 2 1 3 4 6 7 7 8 9 8 10 6 4 7 9 9 9
4 6 5 4 4 4 5 7 8 9 8 7 4 3 4 6 7 5 6 6 4 2 1 1 2 3 3 2 2 3 5 5 4 5 5 5 6 7 3 5 5 6 7
1 4 6 6 6 6 6 7 8 10 10 9 7 6 6 7 9 8 8 7 6 4 3 3 3 4 5 4 2 2 4 3 2 4 4 3 4 4 4 2 3 4 5
1 3 3 5 6 7 8 9 10 10 12 11 10 8 8 8 9 9 9 9 9 7 5 4 4 5 7 7 5 3 4 3 3 3 4 3 3 3 2 1 1 2 2
3 4 7 7 7 8 9 11 11 13 13 13 12 10 10 10 11 11 11 11 10 10 8 6 6 7 8 9 9 7 6 5 4 4 3 3 2 2 2 1 1 1 1
3 3 6 10 12 11 13 14 14 13 15 14 14 12 12 12 13 14 13 13 13 13 13 11 9 10 11 11 12 11 9 8 7 6 4 3 3 3 3 3 3 3 3
10 9 10 10 13 14 16 18 16 15 15 16 15 15 14 15 16 16 16 16 16 17 16 15 13 12 13 13 14 14 13 11 10 8 8 6 5 5 4 5 5 5 5
16 17 17 18 17 18 19 20 20 21 19 19 18 19 18 18 19 20 20 19 19 19 19 18 17 15 14 16 16 16 16 15 13 11 10 10 8 7 7 7 7 7 7
19 19 17 18 18 19 21 23 24 23 23 23 23 21 21 21 22 22 22 22 22 22 22 21 21 20 18 17 18 18 18 18 18 15 14 12 11 10 10 9 10 10 9
17 18 18 19 19 19 19 20 23 25 26 26 24 24 25 26 25 23 25 26 25 25 25 24 24 24 22 21 20 21 20 21 21 20 18 16 15 14 13 12 12 12 12
22 23 22 22 21 23 21 21 22 23 24 26 27 27 26 26 26 26 28 27 27 29 28 28 28 27 26 25 24 23 23 23 25 24 22 20 19 18 17 15 14 14 15
20 21 22 22 21 20 23 25 26 25 26 26 26 27 28 29 28 28 28 26 25 28 30 31 31 33 31 30 28 26 25 25 26 26 26 25 23 21 20 19 18 17 17
18 19 20 22 22 23 25 28 29 28 26 25 24 24 26 30 31 32 32 31 28 26 27 29 32 33 36 36 32 29 27 27 28 28 28 28 26 25 23 22 21 20 20
18 20 22 23 23 25 28 32 33 33 31 28 27 26 24 27 30 33 36 35 32 32 27 30 30 32 32 35 35 33 30 29 28 29 30 31 30 29 27 25 23 23 22
21 25 26 29 29 30 31 33 35 37 36 35 33 32 30 27 28 31 34 37 37 35 34 27 31 30 31 31 35 35 34 33 32 31 31 32 33 32 31 30 28 25 25
24 27 31 34 35 37 39 40 41 42 42 41 39 36 35 34 32 31 32 33 37 38 37 36 30 32 33 31 30 31 25 32 35 34 33 34 36 34 34 33 32 30 29
21 24 25 27 32 36 38 41 43 46 47 47 45 44 40 37 35 33 32 32 32 35 39 38 36 32 32 33 33 28 11 13 23 29 35 34 35 36 35 35 34 34 33
24 24 27 29 28 28 30 33 36 39 42 42 43 43 39 36 35 33 32 32 33 34 36 39 39 37 35 30 31 34 35 34 21 21 23 23 23 27 29 31 30 33 36
23 26 30 32 31 29 26 28 28 31 32 32 33 33 31 31 34 31 29 30 31 32 34 35 37 40 38 35 37 28 36 33 36 38 28 26 27 21 22 23 25 25 25
22 24 24 26 28 28 26 25 28 26 25 26 24 26 29 29 29 28 26 27 28 29 32 32 32 37 40 40 35 34 39 28 28 34 37 34 38 38 38 37 39 32 30
Wind_Direction
161 169 165 169 154 138 126 132 116 100 71 76 106 121 122 121 117 116 125 125 110 103 98 77 71 73 72 71 88 100 116 116 105 116 102 85 76 81 85 81 83 91 81
159 181 178 178 168 164 145 131 117 99 77 74 108 121 122 123 121 122 125 126 136 108 78 75 74 72 76 86 88 106 117 113 103 104 102 93 76 81 81 79 85 96 91
166 192 186 185 182 179 172 168 140 122 83 76 108 123 120 122 126 132 139 143 126 91 71 58 72 79 87 94 98 103 117 112 105 103 101 92 79 72 83 89 93 93 100
197 188 208 204 194 192 187 186 158 121 84 78 104 129 117 119 134 151 173 157 123 88 63 58 71 88 94 97 93 113 123 120 111 108 105 109 87 66 87 94 94 93 98
187 209 202 209 204 201 203 186 201 146 132 84 105 150 140 112 126 131 151 153 139 79 28 41 67 102 104 80 78 98 126 114 114 120 129 112 111 53 87 97 93 90 92
187 186 175 209 210 208 203 197 188 165 241 88 81 156 158 141 123 132 146 150 154 117 19 37 86 142 120 79 64 93 118 115 113 116 115 100 97 80 68 97 98 88 84
170 180 174 196 211 210 216 207 200 202 218 271 334 176 180 174 176 171 185 198 206 207 250 293 198 196 169 122 78 98 121 122 121 121 136 133 111 118 58 88 95 103 100
158 196 207 190 210 240 230 222 215 220 227 242 269 258 215 202 206 200 213 223 224 235 273 277 235 213 199 186 131 111 132 120 110 128 144 163 149 145 125 76 66 78 84
123 189 214 215 210 212 228 242 243 234 232 237 256 258 239 227 224 233 237 235 238 245 260 264 253 225 215 213 203 144 158 145 118 127 142 141 150 169 186 74 73 72 79
199 250 255 244 259 261 264 250 242 247 257 246 247 253 250 242 241 241 240 240 241 243 247 255 255 236 227 231 234 209 188 182 153 137 138 128 153 164 170 170 83 77 74
185 276 295 287 268 273 274 273 264 257 248 259 257 253 256 249 250 250 248 247 247 248 249 257 260 250 239 234 239 236 225 216 202 183 165 157 184 218 224 218 284 344 358
316 278 255 262 263 274 277 273 268 265 264 261 260 263 264 261 256 256 251 250 251 249 248 251 251 246 245 242 242 241 238 231 222 219 221 217 206 227 258 268 277 288 291
298 297 295 286 276 274 273 273 275 272 268 266 262 257 256 262 261 259 257 252 253 251 249 250 254 252 251 247 244 246 242 239 230 231 231 233 228 231 251 266 271 277 283
293 295 292 287 279 270 266 266 267 268 267 266 260 267 267 261 260 262 261 259 258 257 254 253 254 255 249 248 247 247 246 244 240 239 236 239 239 243 247 259 267 272 278
295 293 291 287 284 275 266 262 263 265 264 262 262 265 272 271 263 259 261 262 262 259 259 256 255 255 252 248 249 246 249 247 246 244 242 244 245 248 251 255 265 269 272
286 284 281 280 280 280 277 271 264 262 262 261 259 259 257 266 264 263 261 261 261 262 262 262 260 256 255 254 250 251 250 250 249 249 246 245 248 250 254 257 264 268 271
289 289 289 284 278 275 274 274 271 269 266 262 260 259 258 258 260 259 262 262 262 263 263 262 263 260 254 252 251 250 250 251 248 251 252 252 251 252 253 258 261 268 272
292 288 288 290 287 278 272 273 276 276 274 272 268 264 260 260 261 260 258 254 262 264 265 266 260 261 260 255 251 253 253 253 253 249 253 255 255 255 256 259 263 267 271
294 292 287 283 281 276 270 272 274 277 276 276 274 273 269 263 258 257 258 257 254 260 263 266 269 264 262 262 261 258 253 256 256 253 253 255 256 257 256 258 262 264 267
292 290 288 284 276 269 268 271 273 273 274 275 274 275 282 276 269 260 256 257 255 253 261 264 264 269 272 265 268 263 261 255 258 254 254 255 256 257 258 260 261 263 266
294 289 283 280 275 272 270 269 269 271 271 270 270 273 277 282 275 269 265 259 255 253 250 258 263 268 272 273 276 266 261 256 254 256 255 255 256 258 260 259 261 262 262
300 290 282 278 274 272 272 272 273 275 274 274 274 274 274 277 277 269 264 261 258 255 252 249 251 256 263 267 268 276 263 263 255 256 258 262 263 261 261 261 263 264 264
328 324 316 305 292 282 276 275 273 273 273 273 273 275 277 277 277 271 264 262 257 254 253 250 246 250 254 261 264 256 252 246 269 264 261 258 265 267 265 266 265 266 266
334 333 330 324 314 301 293 287 283 278 277 276 276 275 276 277 279 276 266 260 258 252 251 250 247 246 248 256 256 251 262 259 256 270 265 262 266 266 268 267 270 269 269
333 333 332 329 327 322 306 297 289 283 283 283 279 277 278 283 281 279 266 258 258 256 250 250 249 245 245 251 252 266 254 258 260 258 266 262 264 267 267 268 275 273 275
331 323 327 328 323 320 312 303 291 286 283 283 284 285 289 288 286 278 268 255 257 256 251 249 250 248 245 246 251 253 260 264 253 261 265 270 275 272 264 271 272 273 277